Regional Weather Roundup
Issued by NWS Wakefield, VA

Home | Current Version | Previous Version | Text Only | Print | Product List | Glossary Off
Versions: 1 2 3 4 5 6 7 8 9 10 11 12 13 14 15 16 17 18 19 20 21 22 23 24 25 26 27 28 29 30 31 32 33 34 35 36 37 38 39 40 41 42 43 44 45 46 47 48 49 50

951
ASUS41 KAKQ 272115
RWRAKQ

REGIONAL WEATHER ROUNDUP
NATIONAL WEATHER SERVICE WAKEFIELD VA
500 PM EDT SAT MAY 27 2017

Note: "fair" indicates few or no clouds below 12,000 feet with no
significant weather and/or obstructions to visibility. * = Denotes
station may not report precipitation (e.g., rain,snow,etc.),
thunder or fog.

VAZ042-051-052>054-056-272200-
NORTHERN VIRGINIA

CITY           SKY/WX    TMP DP  RH WIND       PRES   REMARKS
WASH NATIONAL  LGT RAIN  70  64  81 E7        29.89R
DULLES         CLOUDY    68  62  81 NE7       29.89S
FORT BELVOIR   CLOUDY    73  61  68 NE3       29.88R
QUANTICO       CLOUDY    75  64  68 NE9       29.88R
FREDERICKSBRG* PTSUNNY   76  66  71 NE6       29.85R
STAFFORD*      CLOUDY    73  64  73 NE6       29.90S
WARRENTON      CLOUDY    76  60  57 NE6       29.87R
CULPEPER*      PTSUNNY   77  66  68 N7        29.87S
MANASSAS*      CLOUDY    73  64  73 N13       29.88S
LEESBURG*      CLOUDY    68  64  88 NE3       29.91S
WINCHESTER     CLOUDY    64  59  82 N3        29.90S
FRONT ROYAL*   CLOUDY    68  63  83 NE5       29.88S
LURAY*         CLOUDY    73  64  73 NE9       29.87R
$$

VAZ048-049-060>072-079>083-272200-
CENTRAL AND SOUTH CENTRAL VIRGINIA

CITY           SKY/WX    TMP DP  RH WIND       PRES   REMARKS
RICHMOND       PTSUNNY   85  66  53 SW9       29.82F
CHESTERFIELD*  NOT AVBL
PETERSBURG*    SUNNY     83  64  51 CALM      29.84F
HANOVER        PTSUNNY   85  63  47 SW5       29.83F
TAPPAHANNOCK*  PTSUNNY   78  62  58 NE5       29.85F
QUINTON*       MOCLDY   N/A N/A N/A SE5       29.82F
CHARLOTTSVILLE PTSUNNY   83  68  60 N8        29.84S
GORDONSVILLE*  MOCLDY    82  69  65 NE3       29.83S
ORANGE*        CLOUDY    77  68  73 NE6       29.84S
LOUISA*          N/A    N/A N/A N/A MISG      29.83S
BUMPASS*       FAIR      82  67  61 CALM      29.83S
FARMVILLE*     PTSUNNY   87  60  40 S8        29.80F
CREWE*         MOCLDY    84  62  46 S5        29.83F
FORT PICKETT*  MOCLDY    86  60  42 S13G21    29.84F
CHASE CITY*    MOCLDY    86  64  47 S5        29.85F
CLARKSVILLE*   MOCLDY    79  70  73 CALM      29.85F
SOUTH HILL*    SUNNY     84  69  59 SW7       29.91S
LAWRENCEVILLE* FAIR      86  68  54 SW9       29.85F
EMPORIA*       PTSUNNY   84  66  54 S8        29.86S
$$

VAZ088>098-272200-
SOUTHEAST VIRGINIA

CITY           SKY/WX    TMP DP  RH WIND       PRES   REMARKS
NORFOLK        SUNNY     86  68  54 NE10      29.84S
VIRGINIA BEACH MOSUNNY   78  65  63 E8        29.84F
NORFOLK NAVAL  NOT AVBL
WEST POINT*    PTSUNNY   82  63  52 SE5       29.84F
SALUDA*        FAIR      76  65  69 E6        29.85S
NEWPORT NEWS   MOSUNNY   84  63  49 SW7       29.84F
LANGLEY AFB    SUNNY     83  66  56 SE9       29.84S
FORT EUSTIS    MOSUNNY   87  65  49 S5        29.81F
WILLIAMSBURG*  SUNNY     88  66  48 CALM      29.85F
HR EXEC AP*    FAIR      88  64  45 SW8       29.81S
FRANKLIN*      MOSUNNY   85  64  49 SW5       29.85S
US460-WAKEFLD  SUNNY     86  65  49 VRB5      29.84F
$$

VAZ020-022-025-037-045-272200-
WEST CENTRAL AND SOUTHWEST VIRGINIA

CITY           SKY/WX    TMP DP  RH WIND       PRES   REMARKS
STAUNTON*      MOSUNNY   81  65  58 SW9       29.87F
WAYNESBORO*    CLOUDY    78  66  66 SW6       29.88S
HOT SPRINGS VA CLOUDY    72  54  53 W13       30.00F
LYNCHBURG      CLOUDY    83  64  52 VRB7      29.86F
DANVILLE       CLOUDY    82  69  64 CALM      29.86S
SOUTH BOSTON*  MOCLDY    84  65  53 SW6       29.86S
MARTINSVILLE   CLOUDY    82  66  58 CALM      29.90F
ROANOKE        CLOUDY    83  62  49 W10       29.89F
BLACKSBURG     CLOUDY    77  64  63 NW5       29.97F
DUBLIN*        CLOUDY    81  56  43 W10       29.96S
MARION*        PTSUNNY   75  64  67 W10       30.01S
HILLSVILLE*    MOSUNNY   77  56  48 NW13      29.97F
RICHLANDS*     MOCLDY    74  64  71 SW8       29.99S
WISE*          PTSUNNY   73  63  68 SW7       30.00F
ABINGDON*      PTSUNNY   79  67  66 W12       29.98S
$$

MDZ021>025-VAZ099-100-272200-
SOUTHERN MARYLAND AND THE DELMARVA PENINSULA

CITY           SKY/WX    TMP DP  RH WIND       PRES   REMARKS
PATUXENT RIVER CLOUDY    72  64  76 SE8       29.86F
BAY BRIDGE APT LGT RAIN  68  61  77 NE5       29.90R
LEONARDTOWN    CLOUDY    72  63  73 E3        29.88F
DOVER          LGT RAIN  65  65 100 NE7       29.88F
GEORGETOWN     CLOUDY    73  60  63 NE12      29.91R
EASTON         LGT RAIN  72  61  68 NE6       29.93R
CAMBRIDGE      CLOUDY    73  61  64 N5        29.88S
SALISBURY      CLOUDY    75  58  55 SE8       29.88R
OCEAN CITY     CLOUDY    69  56  62 S8        29.90F
WALLOPS ISLAND PTSUNNY   71  57  61 SE9       29.89F
ACCOMACK*      CLOUDY    74   1   6 E5        29.87S
$$

NCZ012>017-030>032-272200-
NORTH CENTRAL AND EASTERN NORTH CAROLINA

CITY           SKY/WX    TMP DP  RH WIND       PRES   REMARKS
ROANOKE RAPIDS FAIR      88  64  45 SW13      29.86S
RALEIGH        PTSUNNY   87  67  51 SW10      29.87F
ELIZABETH CITY SUNNY     86  66  51 S9        29.85F
AHOSKIE*       NOT AVBL
EDENTON*       SUNNY     88  64  44 CALM      29.86F
CURRITUCK*     MOSUNNY   87  62  43 SW10      29.86F
KILL DEVIL HLS SUNNY     85  64  49 CALM      29.86F
MANTEO         MOSUNNY   81  69  66 S15       29.87F
CAPE HATTERAS  PTSUNNY   80  69  69 SW12G21   29.90F
TARBORO*       NOT AVBL
GOLDSBORO      MOSUNNY   88  64  44 SW13      29.86F
WASHINGTON     MOSUNNY   87  65  47 SW6       29.87S
GREENVILLE     SUNNY     88  63  42 W7        29.90S
NEW BERN       PTSUNNY   87  70  56 SW12G17   29.88F
WILMINGTON     MOSUNNY   86  68  54 SW14G23   29.89F
$$

VAZ048-272200-
ELSEWHERE

CITY           SKY/WX    TMP DP  RH WIND       PRES   REMARKS
HARRISBURG PA  PTSUNNY   72  59  63 SW5       29.88S
BALTIMORE      CLOUDY    67  58  72 E10       29.89S
ANNAPOLIS      LGT RAIN  69  61  75 NE8       29.89F
ANDREWS AFB    DRIZZLE   69  59  72 E6        29.88S
PHILADELPHIA   CLOUDY    71  55  56 SW12      29.90R
HENDERSON NC   SUNNY     82  62  50 SW10      29.86F
GREENSBORO     CLOUDY    84  67  56 W12       29.88F
ROCKY MOUNT    MOSUNNY   86  66  51 W6        29.87F
$$

VAZ100-272200-
MARINE

STATION/POSITION TIME  TEMP    WIND        PRES    WAVE   SWELL
                       AIR SEA DIR/SP/G            HT/PER HT/PER
                 (UTC) (F)     (DEG/KT/KT) (MB)    (FT/S) (FT/S)
CAPE MAY NJ      2048   65 65  200/  5/  6 1012.8R
LEWES DE         2048   66 65  170/  4/  4 1013.0R
15NM E FENWICK I 1950   64 63  160/  2/  4 1013.5    2/ 7   2/ 7
WACHAPREAGUE VA  2048   70 77   70/  7/  9 1011.3F
THOMAS POINT MD  2100   67 65   40/  8/  9   N/A
GOOSES REEF MD   2050   69      80/  8/  8 1012.5S
COVE POINT MD    2048   70     160/  9/ 10 1012.1F
SOLOMONS ISLAND  2048   71 68  130/  9/ 11   N/A
BISHOPS HEAD MD  2048   71 72  130/  4/  4 1012.0F
PINEY POINT MD   2042          120/ 10/ 11   N/A
POTOMAC MD       2050   71     140/  8/ 10 1010.2F
CAMBRIDGE MD     2042   73 72                N/A
LEWISETTA VA     2048   74 71  150/  7/  8 1010.8F
RAPPAHANNOCK LGT 2042          100/  8/  8 1011.6F
STINGRAY PT      2050   71     170/  4/  6 1011.8S
YORK RVR RNG VA  2048   72     120/  9/ 11 1010.3F
YORKTOWN VA      2048   74 71   50/  8/ 10 1010.4F
JAMESTOWN VA     2050   81     120/  4/  6   N/A
DOMINION TERM VA 2048   83      CALM  /  3 1010.8S
KIPTOPEKE VA     2042      69  150/  7/  8   N/A
CHES BAY BRIDGE  2048   71 69  100/ 10/ 12 1010.7F
CAPE HENRY VA    2048   72     130/  9/ 14   N/A
WILLOUBY STN VA  2048   74      80/  6/  7 1010.8R
S CRANEY ISL VA  2048   86     230/  8/ 11 1010.4F
CAPE HENRY BUOY  2042      67                N/A     2/ 8
1ST LANDING BUOY 2050   71                 1011.0F
CAPE CHARLES BUO 2051      66                N/A     2/ 8
64NM E OF VA BCH 2050   68 67  160/  4/  6 1012.3F   3/ 8   3/ 8
DUCK PIER NC     2048   82 64  240/  5/  7 1010.9F
44100 DUCK FRF   2035      68                N/A     2/ 7
44056 DUCK FRF   2030      68                N/A     1/ 8
OREGON INLET NC  2042   77 76  190/ 19/ 21 1011.7F
HATTERAS NC      2048   78 73  200/ 11/ 15 1012.4F
DIAMOND SHLS NC  2050   78 77  230/ 16/ 19 1012.8F   3/ 6   2/ 7
CAPE LOOKOUT NC  2000   78     210/ 12/ 15 1012.9F
$$




USA.gov is the U.S. government's official web portal to all federal, state and local government web resources and services.